Weather History for NZCH - September, 2013

Change the Weather History Date:

Friday, September 27, 2013

  Actual Average Record
Temperature  
Mean Temperature 48 °F -  
Max Temperature 57 °F 59 °F 71 °F (2001)
Min Temperature 39 °F 39 °F 32 °F (2005)
Degree Days  
Heating Degree Days 17    
Moisture  
Dew Point 46 °F    
Average Humidity 88    
Maximum Humidity 100    
Minimum Humidity 67    
Precipitation  
Precipitation 0.00 in - - ()
Sea Level Pressure  
Sea Level Pressure 29.58 in    
Wind  
Wind Speed 8 mph ()    
Max Wind Speed 25 mph    
Max Gust Speed -    
Visibility 6.0 miles    
Events Fog , Rain    
Averages and records for this station are not official NWS values.
T = Trace of Precipitation, MM = Missing Value Source: Averaged Metar Reports

Daily Weather History Graph

Daily Weather History Graph

Search for Another Location

Airport or City:

Trip Planner

Search our weather history database for the weather conditions in past years. The results will help you decide how hot, cold, wet, or windy it might be!

Date:

Astronomy

Sep. 27, 2013 Rise Set
Actual Time 6:10 AM NZST 6:31 PM NZST
Civil Twilight 5:42 AM NZST 7:00 PM NZST
Nautical Twilight 5:08 AM NZST 7:34 PM NZST
Astronomical Twilight 4:33 AM NZST 8:09 PM NZST
Moon 1:13 AM NZST (9/27) 10:55 AM NZST (9/27)
Length of Visible Light 13h 18m
Length of Day
12h 21m
Waning Gibbous, 52% of the Moon is Illuminated
Sep 27
Waning Gibbous
Sep 27
Last Quarter
Oct 5
New
Oct 12
First Quarter
Oct 19
Full

Hourly Weather History & Observations

Time (NZST) Temp. Windchill Dew Point Humidity Pressure Visibility Wind Dir Wind Speed Gust Speed Precip Events Conditions
12:00 AM 50.0 °F - 44.6 °F 82% 29.74 in 6.2 mi West 5.8 mph - N/A   Unknown
12:30 AM 48.2 °F - 44.6 °F 87% 29.74 in 6.2 mi WSW 3.5 mph - N/A   Unknown
1:00 AM 42.8 °F - 39.2 °F 87% 29.74 in 6.2 mi SW 2.3 mph - N/A   Unknown
1:30 AM 44.6 °F - 42.8 °F 93% 29.74 in 6.2 mi SSW 2.3 mph - N/A   Unknown
2:00 AM 42.8 °F - 42.8 °F 100% 29.74 in 6.2 mi WSW 1.2 mph - N/A   Unknown
2:30 AM 39.2 °F - 39.2 °F 100% 29.74 in 6.2 mi West 1.2 mph - N/A   Unknown
3:00 AM 41.0 °F - 41.0 °F 100% 29.74 in 6.2 mi SW 2.3 mph - N/A   Unknown
3:30 AM 41.0 °F 39.0 °F 39.2 °F 93% 29.74 in 6.2 mi WNW 3.5 mph - N/A   Unknown
4:00 AM 41.0 °F 37.1 °F 41.0 °F 100% 29.74 in 6.2 mi West 5.8 mph - N/A   Unknown
4:30 AM 42.8 °F 38.6 °F 41.0 °F 93% 29.74 in 6.2 mi WNW 6.9 mph - N/A   Unknown
5:00 AM 41.0 °F 39.0 °F 41.0 °F 100% 29.74 in 6.2 mi NW 3.5 mph - N/A   Unknown
5:30 AM 39.2 °F 37.0 °F 37.4 °F 93% 29.74 in 6.2 mi WNW 3.5 mph - N/A   Unknown
6:00 AM 39.2 °F 35.0 °F 37.4 °F 93% 29.74 in 6.2 mi WNW 5.8 mph - N/A   Unknown
6:30 AM 39.2 °F 37.0 °F 37.4 °F 93% 29.74 in 6.2 mi West 3.5 mph - N/A   Unknown
7:00 AM 39.2 °F - 39.2 °F 100% 29.74 in 6.2 mi West 2.3 mph - N/A   Unknown
7:30 AM 44.6 °F - 42.8 °F 93% 29.74 in 6.2 mi Calm Calm - N/A   Unknown
8:00 AM 46.4 °F - 44.6 °F 93% 29.71 in 6.2 mi East 2.3 mph - N/A   Unknown
8:30 AM 50.0 °F - 46.4 °F 87% 29.71 in 6.2 mi NE 4.6 mph - N/A   Unknown
9:00 AM 53.6 °F - 46.4 °F 77% 29.71 in 6.2 mi ENE 5.8 mph - N/A   Unknown
9:30 AM 55.4 °F - 46.4 °F 72% 29.71 in 6.2 mi ENE 8.1 mph - N/A   Unknown
10:00 AM 55.4 °F - 46.4 °F 72% 29.68 in 6.2 mi ENE 10.4 mph - N/A   Unknown
10:30 AM 57.2 °F - 48.2 °F 72% 29.68 in 6.2 mi ENE 11.5 mph - N/A   Unknown
11:00 AM 57.2 °F - 46.4 °F 67% 29.65 in 6.2 mi ENE 16.1 mph - N/A   Unknown
11:30 AM 57.2 °F - 48.2 °F 72% 29.65 in 6.2 mi ENE 18.4 mph - N/A   Unknown
12:00 PM 55.4 °F - 46.4 °F 72% 29.62 in 6.2 mi ENE 20.7 mph - N/A   Unknown
12:30 PM 55.4 °F - 48.2 °F 77% 29.59 in 6.2 mi ENE 19.6 mph - N/A   Unknown
1:00 PM 55.4 °F - 48.2 °F 77% 29.59 in 6.2 mi ENE 23.0 mph - N/A   Unknown
1:30 PM 55.4 °F - 48.2 °F 77% 29.56 in 6.2 mi ENE 19.6 mph - N/A   Unknown
2:00 PM 55.4 °F - 48.2 °F 77% 29.53 in 6.2 mi ENE 23.0 mph - N/A   Unknown
2:30 PM 53.6 °F - 46.4 °F 77% 29.53 in 6.2 mi East 18.4 mph - N/A   Unknown
3:00 PM 55.4 °F - 48.2 °F 77% 29.50 in 6.2 mi ENE 24.2 mph - N/A   Unknown
3:30 PM 55.4 °F - 48.2 °F 77% 29.47 in 6.2 mi ENE 25.3 mph - N/A   Unknown
4:00 PM 55.4 °F - 48.2 °F 77% 29.44 in 6.2 mi East 23.0 mph - N/A   Unknown
4:30 PM 53.6 °F - 48.2 °F 82% 29.42 in 6.2 mi East 25.3 mph - N/A   Unknown
5:00 PM 53.6 °F - 48.2 °F 82% 29.42 in 6.2 mi East 20.7 mph - N/A   Unknown
5:30 PM 53.6 °F - 48.2 °F 82% 29.39 in 6.2 mi East 20.7 mph - N/A   Scattered Clouds
6:00 PM 51.8 °F - 50.0 °F 94% 29.39 in 6.2 mi East 15.0 mph - N/A   Partly Cloudy
6:30 PM 51.8 °F - 50.0 °F 94% 29.39 in 6.2 mi East 13.8 mph - N/A   Mostly Cloudy
7:00 PM 51.8 °F - 50.0 °F 94% 29.42 in 6.2 mi NW 4.6 mph - N/A Rain Light Rain
7:30 PM 51.8 °F - 50.0 °F 94% 29.42 in 6.2 mi East 5.8 mph - N/A   Drizzle
8:00 PM 51.8 °F - 50.0 °F 94% 29.42 in 6.2 mi NE 4.6 mph - N/A   Drizzle
8:30 PM 51.8 °F - 50.0 °F 94% 29.39 in 6.2 mi ENE 11.5 mph - N/A   Partly Cloudy
9:00 PM 50.0 °F - 50.0 °F 100% 29.36 in 5.6 mi ENE 10.4 mph - N/A   Unknown
9:30 PM 50.0 °F - 50.0 °F 100% 29.33 in 5.0 mi ENE 10.4 mph - N/A   Unknown
10:00 PM 48.2 °F - 48.2 °F 100% 29.30 in - NNE 8.1 mph - N/A   Mist
10:30 PM 48.2 °F - 48.2 °F 100% 29.30 in 0.8 mi SE 8.1 mph - N/A Fog Patches of Fog
11:00 PM 48.2 °F - 46.4 °F 93% 29.30 in 6.2 mi NE 5.8 mph - N/A   Unknown
11:30 PM 46.4 °F - 46.4 °F 100% 29.27 in 6.2 mi SSW 1.2 mph - N/A   Unknown